Regional Weather Roundup
Issued by NWS Sioux Falls, SD

Home | Current Version | Previous Version | Graphics & Text | Print | Product List | Glossary Off
Versions: 1 2 3 4 5 6 7 8 9 10 11 12 13 14 15 16 17 18 19 20 21 22 23 24 25 26 27 28 29 30 31 32 33 34 35 36 37 38 39 40 41 42 43 44 45 46 47 48 49 50

000
ASUS43 KFSD 042310
RWRFSD

WEATHER ROUNDUP FOR SE SOUTH DAKOTA/SW MINNESOTA/NW IOWA
NATIONAL WEATHER SERVICE SIOUX FALLS SD
600 PM CDT TUE AUG 04 2015

NOTE: "FAIR" INDICATES FEW OR NO CLOUDS BELOW 12,000 FEET WITH NO
SIGNIFICANT WEATHER AND OR OBSTRUCTIONS TO VISIBILITY.


SDZ038>040-050-052>070-050000-
SOUTHEAST SOUTH DAKOTA

CITY           SKY/WX    TMP DP  RH WIND       PRES   REMARKS
BROOKINGS      PTSUNNY   75  61  60 SE8       30.01F
CHAMBERLAIN    MOSUNNY   80  63  56 E9        29.95S
HURON          PTSUNNY   80  63  55 SE12      29.95F
MADISON        FAIR      77  63  61 S6        30.00S
MITCHELL       MOSUNNY   81  63  54 SE10      29.95F
SIOUX FALLS    CLOUDY    78  63  59 E9        29.98F
WINNER         FAIR      83  62  49 SE15      29.94S
YANKTON        MOSUNNY   79  64  61 E6        29.95S
$$

MNZ071-072-080-081-089-090-097-098-050000-
SOUTHWEST MINNESOTA

CITY           SKY/WX    TMP DP  RH WIND       PRES   REMARKS
FAIRMONT       MOSUNNY   75  48  38 CALM      30.01R
JACKSON        PTSUNNY   77  54  44 E5        30.02S
LUVERNE        PTSUNNY   79  61  53 SE5       30.00S
MARSHALL       MOSUNNY   79  54  41 CALM      30.01F
MONTEVIDEO     SUNNY     84  54  34 E5        30.01S
PIPESTONE      PTSUNNY   77  57  50 E5        30.01S
REDWOOD FALLS  MOSUNNY   81  50  33 VRB6      29.99S
TRACY          PTSUNNY   77  59  53 NE5       30.01S
WINDOM         PTSUNNY   77  52  41 CALM      30.01S
WORTHINGTON    PTSUNNY   77  57  50 E5        30.01S
$$

IAZ001>003-012>014-020>022-031-032-NEZ013-014-SDZ071-050000-
NORTHWEST IOWA

CITY           SKY/WX    TMP DP  RH WIND       PRES   REMARKS
CHEROKEE       SUNNY     78  66  66 E5        29.99S
DENISON        MOSUNNY   75  63  64 E7        29.97S
ESTHERVILLE    PTSUNNY   76  55  48 N3        30.01R
LE MARS        MOSUNNY   77  64  65 E6        29.99S
ORANGE CITY    SUNNY     77  61  57 S6        30.00S
SHELDON        MOSUNNY   77  63  61 E6        29.99S
SIOUX CITY     MOSUNNY   79  62  56 SE10      29.97S
SPENCER        PTSUNNY   78  59  51 E7        30.01R
STORM LAKE     MOSUNNY   77  64  65 CALM      30.01S
$$

ABBREVIATIONS USED IN REMARKS
   TC - TEMPERATURE IN CELSIUS
  WCI - WIND CHILL INDEX
   HX - HEAT INDEX
  VSB - VISIBILITY




USA.gov is the U.S. government's official web portal to all federal, state and local government web resources and services.